Location: Broekland
(52.3610°N, 6.2005°E)
Time: 16:47:52
(UTC+00:00)

ACS3 Solar Sail - Pass Details

Date: 21 January 2026
Orbit: 900 x 968 km, 97.2° (Epoch: 10 February)

Event Time Altitude Azimuth Distance (km) Brightness Sun altitude
Rises 02:30:56 0° 11° (NNE) 3,648 5.2 -44.6°
Reaches altitude 10° 02:33:25 10° 10° (N) 2,688 4.4 -44.3°
Enters shadow 02:33:26 10° 10° (N) 2,683 4.4 -44.3°
